CDT,Max TemperatureF,Mean TemperatureF,Min TemperatureF,Max Dew PointF,MeanDew PointF,Min DewpointF,Max Humidity, Mean Humidity, Min Humidity, Max Sea Level PressureIn, Mean Sea Level PressureIn, Min Sea Level PressureIn, Max VisibilityMiles, Mean VisibilityMiles, Min VisibilityMiles, Max Wind SpeedMPH, Mean Wind SpeedMPH, Max Gust SpeedMPH,PrecipitationIn, CloudCover, Events, WindDirDegrees
2013-8-1,99,87,75,74,67,61,87,55,30,30.08,30.03,29.95,10,10,10,13,1,,0.00,1,,357
2013-8-2,97,86,76,66,63,57,69,46,27,30.01,29.98,29.94,10,10,10,13,4,18,0.00,0,,173
2013-8-3,97,85,73,67,63,56,75,49,26,30.07,30.02,29.98,10,10,10,13,5,18,0.00,0,,169
2013-8-4,97,86,75,68,64,60,78,50,30,30.13,30.06,29.99,10,10,10,10,7,16,0.00,0,,169
2013-8-5,99,86,75,68,62,57,77,46,26,30.07,30.00,29.90,10,10,10,12,5,,0.00,0,,181
2013-8-6,100,88,76,68,63,57,76,45,26,29.97,29.93,29.85,10,10,10,13,7,20,0.00,0,,177
2013-8-7,102,90,77,68,63,57,70,44,24,29.95,29.90,29.82,10,9,7,14,8,23,0.00,1,,179
2013-8-8,99,87,76,71,62,53,76,49,24,29.97,29.90,29.83,10,9,7,14,4,20,0.03,1,,179
2013-8-9,98,86,73,71,64,56,87,52,25,30.04,29.97,29.90,10,9,2,8,3,,0.14,1,,193
2013-8-10,96,84,73,72,67,62,86,59,33,30.14,30.08,30.02,10,10,10,12,4,9,0.00,1,,15
2013-8-11,97,84,72,69,65,58,83,53,29,30.14,30.08,30.01,10,10,10,18,3,23,0.00,1,,129
2013-8-12,96,84,72,69,64,59,83,52,30,30.12,30.06,29.98,10,10,10,10,4,,0.00,1,,188
2013-8-13,99,87,75,69,64,58,72,50,26,30.09,30.02,29.95,10,10,10,15,4,20,0.00,1,,268
2013-8-14,91,82,73,71,68,62,87,65,38,30.11,30.04,29.99,10,10,10,13,6,18,0.00,3,,37
2013-8-15,88,80,72,70,68,66,89,69,47,30.10,30.06,30.01,10,10,7,13,5,,0.00,4,,108
2013-8-16,86,75,64,67,64,59,91,70,40,30.18,30.06,30.02,10,9,1,26,3,45,1.09,1,,36
2013-8-17,89,77,66,64,59,54,81,57,32,30.15,30.10,30.02,10,10,10,10,3,,0.00,0,,74
2013-8-18,90,79,68,60,58,55,72,50,30,30.16,30.09,30.05,10,10,10,10,3,,0.00,1,,124
2013-8-19,93,81,69,61,57,51,75,46,25,30.12,30.06,29.99,10,10,10,10,2,16,0.00,1,,128
2013-8-20,93,82,70,64,57,50,73,46,23,30.10,30.05,30.01,10,10,10,12,3,25,0.00,1,,145
2013-8-21,92,80,69,68,63,56,83,56,31,30.15,30.09,30.03,10,10,10,13,3,16,0.00,1,,160
2013-8-22,95,84,73,68,64,58,81,54,30,30.15,30.08,29.99,10,10,10,10,2,,0.00,3,,161
2013-8-23,97,84,72,69,63,57,82,51,28,30.10,30.04,29.96,10,10,10,10,3,20,0.00,1,,147
2013-8-24,97,85,73,72,65,59,76,57,28,30.12,30.07,30.02,10,10,1,23,2,30,0.29,2,,53
2013-8-25,95,84,74,69,64,59,76,53,30,30.20,30.14,30.10,10,10,10,14,3,23,0.00,1,,105
2013-8-26,93,82,72,68,64,60,82,57,33,30.22,30.16,30.10,10,10,10,17,7,22,0.00,2,,120
2013-8-27,86,78,72,69,67,65,85,75,51,30.18,30.13,30.09,10,10,7,20,4,30,0.03,4,,168
2013-8-28,94,82,69,70,63,55,91,60,27,30.17,30.11,30.06,10,10,7,10,2,17,0.00,0,,195
2013-8-29,98,84,71,67,61,56,74,49,24,30.16,30.09,30.02,10,10,10,8,1,,0.00,1,,242
2013-8-30,100,84,70,67,60,53,79,45,21,30.09,30.01,29.94,10,10,10,8,1,,0.00,1,,263
2013-8-31,102,86,72,63,58,52,69,39,19,29.98,29.93,29.86,10,10,10,9,2,,0.00,1,,198